When you browse on this site, cookies collect data to enhance your experience and personalize the content and advertising you see.
Visit our Privacy Policy to learn more. By continuing to use the site, you agree to this use of cookies and data.
  • In Czech Republic
  • List of Countries
  • For 7 days
  • Water Temperature
  • Satellite Maps
  • Weather Map
  • Weather Widgets
  • user-avatar
    Login

    Hourly Weather Bregenz

    Today, 20 November, Tuesday

    Time Temperature Precipitation Wind Pressure Humidity
    00:00 -7°C° 0 mm 2 mps 635 mmHg 76%
    01:00 -7°C° 0 mm 2 mps 635 mmHg 75%
    02:00 -7°C° 0 mm 2 mps 635 mmHg 75%
    03:00 -6°C° 0 mm 2 mps 635 mmHg 75%
    04:00 -6°C° 0 mm 2 mps 634 mmHg 75%
    05:00 -6°C° 0 mm 2 mps 634 mmHg 76%
    06:00 -6°C° 0 mm 2 mps 634 mmHg 77%
    07:00 -6°C° 0 mm 2 mps 634 mmHg 77%
    08:00 -5°C° 0 mm 2 mps 635 mmHg 73%
    09:00 -2°C° 0 mm 1 mps 635 mmHg 69%
    10:00 0°C° 0 mm 1 mps 635 mmHg 64%
    11:00 +1°C° 0 mm 1 mps 635 mmHg 62%
    12:00 +2°C° 0 mm 1 mps 636 mmHg 59%
    13:00 +3°C° 0 mm 1 mps 636 mmHg 56%
    14:00 +2°C° 0 mm 1 mps 636 mmHg 61%
    15:00 +1°C° 0 mm 1 mps 636 mmHg 67%
    16:00 0°C° 0 mm 1 mps 636 mmHg 72%
    17:00 -1°C° 0 mm 1 mps 636 mmHg 75%
    18:00 -2°C° 0 mm 1 mps 637 mmHg 77%
    19:00 -3°C° 0 mm 1 mps 637 mmHg 79%
    20:00 -3°C° 0 mm 1 mps 637 mmHg 78%
    21:00 -3°C° 0 mm 1 mps 638 mmHg 77%
    22:00 -5°C° 0 mm 2 mps 638 mmHg 76%
    23:00 -5°C° 0 mm 2 mps 638 mmHg 74%

    Tomorrow, 21 November, Wednesday

    Time Temperature Precipitation Wind Pressure Humidity
    00:00 -5°C° 0 mm 2 mps 638 mmHg 73%
    01:00 -4°C° 0 mm 2 mps 638 mmHg 71%
    02:00 -4°C° 0 mm 2 mps 638 mmHg 70%
    03:00 -4°C° 0 mm 2 mps 639 mmHg 69%
    04:00 -4°C° 0 mm 2 mps 639 mmHg 67%
    05:00 -4°C° 0 mm 2 mps 639 mmHg 67%
    06:00 -4°C° 0 mm 2 mps 639 mmHg 66%
    07:00 -4°C° 0 mm 2 mps 639 mmHg 66%
    08:00 -3°C° 0 mm 2 mps 640 mmHg 62%
    09:00 +1°C° 0 mm 1 mps 640 mmHg 59%
    10:00 +3°C° 0 mm 1 mps 641 mmHg 56%
    11:00 +4°C° 0 mm 1 mps 641 mmHg 56%
    12:00 +5°C° 0 mm 1 mps 641 mmHg 55%
    13:00 +6°C° 0 mm 1 mps 642 mmHg 54%
    14:00 +5°C° 0 mm 1 mps 642 mmHg 62%
    15:00 +3°C° 0 mm 1 mps 641 mmHg 70%
    16:00 +2°C° 0 mm 1 mps 641 mmHg 77%
    17:00 +1°C° 0 mm 1 mps 642 mmHg 79%
    18:00 0°C° 0 mm 1 mps 642 mmHg 80%
    19:00 0°C° 0 mm 1 mps 642 mmHg 82%
    20:00 -1°C° 0 mm 1 mps 642 mmHg 81%
    21:00 -1°C° 0 mm 1 mps 642 mmHg 81%
    22:00 -1°C° 0 mm 1 mps 643 mmHg 80%
    23:00 -1°C° 0 mm 1 mps 643 mmHg 81%

    Day after tomorrow, 22 November, Thursday

    Time Temperature Precipitation Wind Pressure Humidity
    00:00 -1°C° 0 mm 1 mps 643 mmHg 81%
    01:00 -1°C° 0 mm 1 mps 643 mmHg 82%
    02:00 -1°C° 0 mm 1 mps 643 mmHg 83%
    03:00 -1°C° 0 mm 1 mps 643 mmHg 84%
    04:00 -1°C° 0 mm 1 mps 643 mmHg 84%
    05:00 -2°C° 0.1 mm 0 mps 644 mmHg 85%
    06:00 -2°C° 0.1 mm 0 mps 644 mmHg 85%
    07:00 -1°C° 0.1 mm 0 mps 644 mmHg 86%
    08:00 0°C° 0 mm 0 mps 645 mmHg 82%
    09:00 +1°C° 0 mm 0 mps 645 mmHg 79%
    10:00 +2°C° 0 mm 0 mps 646 mmHg 76%
    11:00 +3°C° 0 mm 0 mps 646 mmHg 74%
    12:00 +4°C° 0 mm 0 mps 646 mmHg 72%
    13:00 +5°C° 0 mm 1 mps 646 mmHg 69%
    14:00 +3°C° 0 mm 0 mps 646 mmHg 75%
    15:00 +3°C° 0 mm 0 mps 646 mmHg 80%
    16:00 +2°C° 0 mm 0 mps 646 mmHg 85%
    17:00 +1°C° 0 mm 0 mps 646 mmHg 87%
    18:00 +1°C° 0 mm 1 mps 646 mmHg 88%
    19:00 0°C° 0 mm 1 mps 646 mmHg 89%
    20:00 0°C° 0 mm 1 mps 646 mmHg 89%
    21:00 0°C° 0 mm 1 mps 647 mmHg 88%
    22:00 0°C° 0 mm 1 mps 647 mmHg 88%
    23:00 0°C° 0 mm 1 mps 647 mmHg 87%

    23 November, Friday

    Time Temperature Precipitation Wind Pressure Humidity
    00:00 0°C° 0 mm 1 mps 647 mmHg 86%
    01:00 -1°C° 0 mm 1 mps 647 mmHg 85%
    02:00 -1°C° 0 mm 1 mps 647 mmHg 84%
    03:00 -1°C° 0 mm 1 mps 647 mmHg 83%
    04:00 -1°C° 0 mm 1 mps 647 mmHg 82%
    05:00 -1°C° 0 mm 1 mps 647 mmHg 82%
    06:00 -1°C° 0 mm 1 mps 647 mmHg 81%
    07:00 -1°C° 0 mm 1 mps 647 mmHg 80%
    08:00 0°C° 0 mm 1 mps 648 mmHg 76%
    09:00 +2°C° 0 mm 1 mps 648 mmHg 73%
    10:00 +3°C° 0 mm 1 mps 649 mmHg 69%
    11:00 +4°C° 0 mm 1 mps 649 mmHg 67%
    12:00 +5°C° 0 mm 1 mps 648 mmHg 64%
    13:00 +6°C° 0 mm 1 mps 648 mmHg 61%
    14:00 +5°C° 0 mm 1 mps 648 mmHg 66%
    15:00 +4°C° 0 mm 1 mps 648 mmHg 71%
    16:00 +2°C° 0 mm 2 mps 647 mmHg 77%
    17:00 +2°C° 0 mm 2 mps 647 mmHg 78%
    18:00 +1°C° 0 mm 2 mps 647 mmHg 79%
    19:00 -1°C° 0 mm 2 mps 646 mmHg 80%
    20:00 -1°C° 0 mm 2 mps 646 mmHg 79%
    21:00 -1°C° 0 mm 2 mps 646 mmHg 78%
    22:00 -1°C° 0 mm 2 mps 646 mmHg 78%
    23:00 -1°C° 0 mm 2 mps 645 mmHg 78%

    24 November, Saturday

    Time Temperature Precipitation Wind Pressure Humidity
    00:00 -1°C° 0 mm 2 mps 645 mmHg 79%
    01:00 +1°C° 0 mm 2 mps 645 mmHg 80%
    02:00 +1°C° 0 mm 2 mps 644 mmHg 79%
    03:00 +1°C° 0 mm 2 mps 644 mmHg 79%
    04:00 +1°C° 0 mm 2 mps 643 mmHg 79%
    05:00 +1°C° 0 mm 2 mps 643 mmHg 79%
    06:00 +2°C° 0 mm 2 mps 642 mmHg 79%
    07:00 +2°C° 0 mm 2 mps 642 mmHg 79%
    08:00 +2°C° 0 mm 2 mps 642 mmHg 77%
    09:00 +3°C° 0 mm 2 mps 642 mmHg 75%
    10:00 +4°C° 0 mm 2 mps 641 mmHg 74%
    11:00 +3°C° 0.2 mm 3 mps 641 mmHg 75%
    12:00 +3°C° 0.2 mm 4 mps 642 mmHg 77%
    13:00 +3°C° 0.2 mm 4 mps 642 mmHg 79%
    14:00 +1°C° 1.1 mm 4 mps 642 mmHg 83%
    15:00 +2°C° 1.1 mm 3 mps 642 mmHg 87%
    16:00 +1°C° 1.1 mm 3 mps 642 mmHg 91%
    17:00 0°C° 0.4 mm 3 mps 642 mmHg 91%
    18:00 +1°C° 0.4 mm 2 mps 642 mmHg 91%
    19:00 +1°C° 0.4 mm 2 mps 642 mmHg 91%
    20:00 -1°C° 0.1 mm 2 mps 642 mmHg 91%
    21:00 -1°C° 0.1 mm 3 mps 643 mmHg 91%
    22:00 -1°C° 0.1 mm 3 mps 643 mmHg 91%
    23:00 -1°C° 0 mm 3 mps 643 mmHg 91%

    25 November, Sunday

    Time Temperature Precipitation Wind Pressure Humidity
    00:00 -2°C° 0 mm 3 mps 643 mmHg 91%
    01:00 -2°C° 0 mm 3 mps 643 mmHg 91%
    02:00 -2°C° 0 mm 3 mps 643 mmHg 90%
    03:00 -2°C° 0 mm 3 mps 643 mmHg 90%
    04:00 -4°C° 0 mm 3 mps 643 mmHg 90%
    05:00 -4°C° 0 mm 3 mps 643 mmHg 90%
    06:00 -4°C° 0 mm 3 mps 643 mmHg 90%
    07:00 -5°C° 0 mm 3 mps 643 mmHg 91%
    08:00 -4°C° 0 mm 3 mps 643 mmHg 88%
    09:00 -2°C° 0 mm 3 mps 644 mmHg 85%
    10:00 -1°C° 0 mm 3 mps 644 mmHg 83%
    11:00 0°C° 0 mm 3 mps 644 mmHg 81%
    12:00 0°C° 0 mm 3 mps 644 mmHg 78%
    13:00 +1°C° 0 mm 3 mps 644 mmHg 76%
    14:00 0°C° 0 mm 3 mps 644 mmHg 79%
    15:00 +1°C° 0 mm 2 mps 644 mmHg 82%
    16:00 -1°C° 0 mm 2 mps 644 mmHg 85%
    17:00 -2°C° 0 mm 2 mps 644 mmHg 88%
    18:00 -2°C° 0 mm 2 mps 644 mmHg 90%
    19:00 -1°C° 0 mm 1 mps 644 mmHg 93%
    20:00 -2°C° 0 mm 1 mps 644 mmHg 93%
    21:00 -2°C° 0 mm 1 mps 644 mmHg 92%
    22:00 -3°C° 0 mm 1 mps 644 mmHg 92%
    23:00 -3°C° 0 mm 1 mps 644 mmHg 90%
    Show more